KJ4AJP Weather Reports


Display with metric or nautical units.
time (UTC)temp
F
wind
direction
speed
MPH
gust
MPH
rain 1hr
in
rain 24hr
in
rain mn
in
humidity
%
barometer
mb
20260509064856 61 21 1.0 1.0 0.00 0.00 0.00 77 1009.1
20260509064354 61 100 1.0 1.0 0.00 0.00 0.00 77 1009.1
20260509063852 61 50 1.0 1.0 0.00 0.00 0.00 77 1009.0
20260509063348 61 47 1.0 1.0 0.00 0.00 0.00 77 1009.0
20260509062845 61 35 1.0 2.0 0.00 0.00 0.00 77 1008.9
20260509062342 61 107 1.0 1.0 0.00 0.00 0.00 77 1009.0
20260509061839 61 42 1.0 2.0 0.00 0.00 0.00 77 1008.9
20260509061338 61 8 1.0 1.0 0.00 0.00 0.00 76 1008.8
20260509060834 61 10 2.0 2.0 0.00 0.00 0.00 76 1008.9
20260509060331 61 280 2.0 4.0 0.00 0.00 0.00 76 1008.9
20260509055826 61 35 0.0 1.0 0.00 0.00 0.00 76 1009.1
20260509055322 61 177 2.0 3.0 0.00 0.00 0.00 76 1008.9
20260509054819 60 47 1.0 1.0 0.00 0.00 0.00 76 1009.1
20260509054316 60 62 0.0 0.0 0.00 0.00 0.00 77 1009.1
20260509053814 60 83 1.0 1.0 0.00 0.00 0.00 77 1009.5
20260509053311 60 58 0.0 1.0 0.00 0.00 0.00 77 1009.9
20260509052809 60 45 0.0 0.0 0.00 0.00 0.00 76 1009.9
20260509052307 60 100 1.0 1.0 0.00 0.00 0.00 76 1009.6
20260509051804 60 52 0.0 0.0 0.00 0.00 0.00 76 1009.7
20260509051302 60 64 0.0 0.0 0.00 0.00 0.00 75 1009.7
20260509050758 60 51 0.0 0.0 0.00 0.00 0.00 75 1009.7
20260509050255 60 42 0.0 1.0 0.00 0.00 0.00 75 1010.0
20260509045752 59 38 0.0 1.0 0.00 0.00 0.00 76 1009.9
20260509045249 59 63 0.0 0.0 0.00 0.00 0.00 77 1009.8
20260509044746 59 67 0.0 0.0 0.00 0.00 0.00 77 1009.9
20260509044244 59 66 0.0 0.0 0.00 0.00 0.00 77 1010.1
20260509043740 60 64 0.0 0.0 0.00 0.00 0.00 76 1010.0
20260509043236 60 65 0.0 0.0 0.00 0.00 0.00 75 1009.9
20260509042732 60 55 0.0 0.0 0.00 0.00 0.00 74 1009.8
20260509042228 60 59 0.0 0.0 0.00 0.00 0.00 74 1010.0
20260509041725 60 53 0.0 0.0 0.00 0.00 0.00 74 1010.1
20260509041222 60 67 0.0 0.0 0.00 0.00 0.00 73 1010.1
20260509040721 60 52 0.0 0.0 0.00 0.00 0.00 72 1010.2
20260509040217 60 33 1.0 1.0 0.00 0.00 0.00 72 1010.1
20260509035714 60 87 0.0 1.0 0.00 0.00 0.00 72 1010.2
20260509035211 60 46 0.0 0.0 0.00 0.00 0.00 72 1009.9
20260509034708 60 39 0.0 0.0 0.00 0.00 0.00 72 1010.1
20260509034206 60 63 0.0 0.0 0.00 0.00 0.00 72 1009.9
20260509033702 60 65 0.0 0.0 0.00 0.00 0.00 71 1009.8
20260509033159 60 59 0.0 0.0 0.00 0.00 0.00 71 1009.7
20260509032657 60 52 0.0 0.0 0.00 0.00 0.00 71 1009.8
20260509032153 60 65 0.0 0.0 0.00 0.00 0.00 71 1009.7
20260509031651 60 50 0.0 0.0 0.00 0.00 0.00 70 1009.8
20260509031148 60 56 0.0 0.0 0.00 0.00 0.00 70 1009.8
20260509030647 60 60 0.0 0.0 0.00 0.00 0.00 70 1009.6
20260509030144 60 60 0.0 0.0 0.00 0.00 0.00 71 1009.9
20260509025639 60 60 0.0 0.0 0.00 0.00 0.00 70 1009.9
20260509025135 59 61 0.0 0.0 0.00 0.00 0.00 71 1010.0
20260509024630 59 61 0.0 0.0 0.00 0.00 0.00 71 1009.7
20260509024127 59 60 0.0 0.0 0.00 0.00 0.00 71 1009.6
20260509023625 60 60 0.0 0.0 0.00 0.00 0.00 70 1009.6
20260509023121 60 60 0.0 0.0 0.00 0.00 0.00 69 1009.7
20260509022618 60 60 0.0 0.0 0.00 0.00 0.00 69 1009.5
20260509022116 60 60 0.0 0.0 0.00 0.00 0.00 69 1009.5
20260509021613 61 60 0.0 0.0 0.00 0.00 0.00 69 1009.3
20260509021110 60 61 0.0 0.0 0.00 0.00 0.00 68 1009.5
20260509020608 60 61 0.0 0.0 0.00 0.00 0.00 69 1009.5
20260509020104 60 61 0.0 0.0 0.00 0.00 0.00 69 1009.4
20260509015604 60 60 0.0 0.0 0.00 0.00 0.00 69 1009.5
20260509015100 60 60 0.0 0.0 0.00 0.00 0.00 71 1009.6
20260509014557 60 60 0.0 0.0 0.00 0.00 0.00 70 1009.5
20260509014053 60 60 0.0 0.0 0.00 0.00 0.00 71 1009.7
20260509013550 60 60 0.0 0.0 0.00 0.00 0.00 70 1009.8
20260509013045 61 60 0.0 0.0 0.00 0.00 0.00 68 1009.7
20260509012543 62 60 0.0 0.0 0.00 0.00 0.00 67 1009.6
20260509012040 62 60 0.0 0.0 0.00 0.00 0.00 67 1009.5
20260509011537 62 60 0.0 0.0 0.00 0.00 0.00 66 1009.5
20260509011035 62 60 0.0 0.0 0.00 0.00 0.00 66 1009.5
20260509010532 63 60 0.0 0.0 0.00 0.00 0.00 64 1009.6
20260509010029 64 60 0.0 0.0 0.00 0.00 0.00 63 1009.6
20260509005526 64 60 0.0 0.0 0.00 0.00 0.00 63 1009.7
20260509005026 65 60 0.0 0.0 0.00 0.00 0.00 59 1009.8
20260509004524 66 60 0.0 0.0 0.00 0.00 0.00 58 1009.8
20260509004021 67 60 0.0 0.0 0.00 0.00 0.00 59 1009.8
20260509003519 68 60 0.0 0.0 0.00 0.00 0.00 56 1009.8
20260509003016 68 61 0.0 0.0 0.00 0.00 0.00 53 1009.7
20260509002513 69 60 0.0 0.0 0.00 0.00 0.00 53 1009.7
20260509002010 69 57 0.0 0.0 0.00 0.00 0.00 51 1009.9
20260509001508 70 61 0.0 0.0 0.00 0.00 0.00 49 1009.6
20260509001004 70 42 0.0 0.0 0.00 0.00 0.00 48 1009.8
20260509000502 71 42 0.0 1.0 0.00 0.00 0.00 48 1009.8
20260508235957 71 54 0.0 0.0 0.00 0.00 0.00 47 1009.6
20260508235456 71 53 0.0 0.0 0.00 0.00 0.00 46 1010.0
20260508234952 72 46 0.0 0.0 0.00 0.00 0.00 45 1010.1
20260508234449 72 75 0.0 1.0 0.00 0.00 0.00 45 1009.9
20260508233946 72 29 1.0 1.0 0.00 0.00 0.00 44 1010.0
20260508233446 72 51 0.0 1.0 0.00 0.00 0.00 44 1009.9
20260508232942 73 62 0.0 0.0 0.00 0.00 0.00 44 1010.2
20260508232439 73 48 1.0 1.0 0.00 0.00 0.00 44 1010.1
20260508231936 73 45 0.0 0.0 0.00 0.00 0.00 45 1010.1
20260508231434 73 41 0.0 1.0 0.00 0.00 0.00 43 1010.0
20260508230930 73 279 1.0 2.0 0.00 0.00 0.00 42 1010.2
20260508230427 73 57 0.0 0.0 0.00 0.00 0.00 44 1010.4
20260508225924 73 72 1.0 1.0 0.00 0.00 0.00 42 1010.3
20260508225421 73 290 4.0 4.0 0.00 0.00 0.00 41 1010.5
20260508224918 74 309 1.0 2.0 0.00 0.00 0.00 42 1010.5
20260508224416 74 78 0.0 1.0 0.00 0.00 0.00 43 1010.5
20260508223913 74 17 1.0 1.0 0.00 0.00 0.00 42 1010.5
20260508223411 74 250 2.0 2.0 0.00 0.00 0.00 42 1010.5
20260508222908 74 10 2.0 2.0 0.00 0.00 0.00 41 1010.6
20260508222405 74 55 1.0 2.0 0.00 0.00 0.00 40 1010.4
20260508221901 74 60 0.0 1.0 0.00 0.00 0.00 42 1010.6
20260508221357 74 208 1.0 2.0 0.00 0.00 0.00 42 1010.5
20260508220854 75 17 1.0 1.0 0.00 0.00 0.00 41 1010.5
20260508220350 75 262 2.0 3.0 0.00 0.00 0.00 41 1010.4
20260508215847 76 334 2.0 2.0 0.00 0.00 0.00 39 1010.5
20260508215344 76 173 1.0 3.0 0.00 0.00 0.00 44 1010.5
20260508214840 76 262 2.0 2.0 0.00 0.00 0.00 39 1010.5
20260508214338 76 322 1.0 1.0 0.00 0.00 0.00 39 1010.5
20260508213834 77 161 1.0 1.0 0.00 0.00 0.00 38 1010.6
20260508213331 76 84 2.0 2.0 0.00 0.00 0.00 39 1010.6
20260508212827 76 76 1.0 2.0 0.00 0.00 0.00 40 1010.6
20260508212323 76 54 0.0 1.0 0.00 0.00 0.00 39 1010.6
20260508211819 76 323 5.0 6.0 0.00 0.00 0.00 37 1010.9
20260508211315 76 42 1.0 1.0 0.00 0.00 0.00 39 1010.7
20260508210813 76 319 2.0 3.0 0.00 0.00 0.00 39 1010.8
20260508210309 76 301 2.0 3.0 0.00 0.00 0.00 38 1010.7
20260508205806 76 27 1.0 2.0 0.00 0.00 0.00 39 1011.1
20260508205305 77 292 4.0 6.0 0.00 0.00 0.00 37 1011.0
20260508204759 76 51 0.0 0.0 0.00 0.00 0.00 44 1011.2
20260508204255 76 262 2.0 3.0 0.00 0.00 0.00 41 1011.1
20260508203752 76 163 1.0 1.0 0.00 0.00 0.00 38 1011.1
20260508203248 76 41 2.0 2.0 0.00 0.00 0.00 39 1011.4
20260508202744 76 68 2.0 3.0 0.00 0.00 0.00 36 1011.3
20260508202241 76 95 1.0 2.0 0.00 0.00 0.00 39 1011.5
20260508201738 76 255 2.0 2.0 0.00 0.00 0.00 38 1011.4
20260508201235 76 61 0.0 1.0 0.00 0.00 0.00 38 1011.3
20260508200732 76 19 2.0 3.0 0.00 0.00 0.00 37 1011.5
20260508200228 76 64 2.0 2.0 0.00 0.00 0.00 37 1011.4
20260508195724 75 36 1.0 1.0 0.00 0.00 0.00 41 1011.7
20260508195221 75 51 3.0 4.0 0.00 0.00 0.00 40 1011.9
20260508194717 75 279 3.0 4.0 0.00 0.00 0.00 40 1011.9
20260508194214 75 41 2.0 2.0 0.00 0.00 0.00 42 1012.0
20260508193711 75 51 1.0 1.0 0.00 0.00 0.00 39 1012.1
20260508193208 75 14 2.0 2.0 0.00 0.00 0.00 39 1012.2
20260508192704 75 317 2.0 4.0 0.00 0.00 0.00 37 1012.4
20260508192202 74 274 3.0 3.0 0.00 0.00 0.00 40 1012.5
20260508191659 74 341 1.0 2.0 0.00 0.00 0.00 39 1012.6
20260508191155 74 52 0.0 1.0 0.00 0.00 0.00 42 1012.6
20260508190653 74 273 3.0 3.0 0.00 0.00 0.00 40 1012.7
20260508190149 74 16 2.0 2.0 0.00 0.00 0.00 43 1012.7
20260508185646 73 9 3.0 3.0 0.00 0.00 0.00 39 1012.9
20260508185143 73 282 4.0 6.0 0.00 0.00 0.00 39 1013.0
20260508184640 74 358 4.0 6.0 0.00 0.00 0.00 38 1013.3
20260508184138 74 9 1.0 1.0 0.00 0.00 0.00 38 1013.1
20260508183634 73 60 1.0 1.0 0.00 0.00 0.00 41 1013.4
20260508183130 74 326 5.0 7.0 0.00 0.00 0.00 40 1013.4
20260508182626 74 64 1.0 2.0 0.00 0.00 0.00 42 1013.3
20260508182123 73 43 2.0 2.0 0.00 0.00 0.00 45 1013.7
20260508181618 73 138 2.0 3.0 0.00 0.00 0.00 44 1013.6
20260508181116 73 7 2.0 3.0 0.00 0.00 0.00 42 1013.9
20260508180613 73 50 3.0 4.0 0.00 0.00 0.00 39 1013.8
20260508180109 73 159 1.0 2.0 0.00 0.00 0.00 40 1013.7
20260508175606 73 23 1.0 2.0 0.00 0.00 0.00 40 1013.6
20260508175103 73 286 3.0 3.0 0.00 0.00 0.00 40 1013.8
20260508174601 73 35 1.0 1.0 0.00 0.00 0.00 43 1013.7
20260508174057 73 41 2.0 2.0 0.00 0.00 0.00 41 1014.0
20260508173554 72 17 1.0 1.0 0.00 0.00 0.00 41 1013.9
20260508173050 72 67 2.0 3.0 0.00 0.00 0.00 43 1014.1
20260508172548 72 313 5.0 6.0 0.00 0.00 0.00 43 1014.2
20260508172044 71 267 2.0 2.0 0.00 0.00 0.00 44 1014.3
20260508171541 71 93 3.0 4.0 0.00 0.00 0.00 42 1014.5
20260508171037 71 48 2.0 3.0 0.00 0.00 0.00 42 1014.5
20260508170535 73 259 6.0 8.0 0.00 0.00 0.00 39 1014.6
20260508170032 72 127 1.0 2.0 0.00 0.00 0.00 42 1014.7
20260508165529 71 67 1.0 1.0 0.00 0.00 0.00 42 1014.7
20260508165026 72 70 3.0 4.0 0.00 0.00 0.00 44 1015.0
20260508164522 71 18 1.0 1.0 0.00 0.00 0.00 41 1014.8
20260508164019 71 56 2.0 2.0 0.00 0.00 0.00 45 1014.8
20260508163517 71 241 4.0 6.0 0.00 0.00 0.00 41 1015.0
20260508163013 70 124 2.0 2.0 0.00 0.00 0.00 45 1015.1
20260508162510 71 71 3.0 4.0 0.00 0.00 0.00 45 1015.5
20260508162007 70 131 2.0 2.0 0.00 0.00 0.00 45 1015.3
20260508161504 70 208 1.0 2.0 0.00 0.00 0.00 45 1015.5
20260508161001 70 321 3.0 4.0 0.00 0.00 0.00 45 1015.4
20260508160500 70 130 3.0 4.0 0.00 0.00 0.00 44 1015.7
20260508155955 70 82 2.0 2.0 0.00 0.00 0.00 47 1015.7
20260508155453 70 286 2.0 2.0 0.00 0.00 0.00 51 1015.7
20260508154949 70 96 2.0 2.0 0.00 0.00 0.00 48 1015.7
20260508154448 70 336 2.0 3.0 0.00 0.00 0.00 48 1015.9
20260508153944 69 65 2.0 2.0 0.00 0.00 0.00 49 1015.7
20260508153441 69 62 1.0 1.0 0.00 0.00 0.00 49 1016.0
20260508152937 69 346 5.0 7.0 0.00 0.00 0.00 48 1016.1
20260508152434 68 67 1.0 2.0 0.00 0.00 0.00 50 1016.3
20260508151930 68 294 1.0 3.0 0.00 0.00 0.00 51 1016.4
20260508151427 67 359 3.0 3.0 0.00 0.00 0.00 52 1016.3
20260508150923 67 278 2.0 4.0 0.00 0.00 0.00 50 1016.4
20260508150420 67 343 1.0 2.0 0.00 0.00 0.00 54 1016.4
20260508145916 67 109 2.0 3.0 0.00 0.00 0.00 53 1016.4
20260508145413 67 114 2.0 2.0 0.00 0.00 0.00 52 1016.5
20260508144909 67 231 2.0 2.0 0.00 0.00 0.00 52 1016.4
20260508144407 66 342 2.0 2.0 0.00 0.00 0.00 55 1016.5
20260508143904 65 80 2.0 2.0 0.00 0.00 0.00 57 1016.6
20260508143402 65 38 1.0 1.0 0.00 0.00 0.00 56 1016.6
20260508142858 65 44 1.0 2.0 0.00 0.00 0.00 56 1016.7
20260508142355 65 330 2.0 3.0 0.00 0.00 0.00 53 1016.7
20260508141851 64 112 1.0 2.0 0.00 0.00 0.00 59 1016.7
20260508141348 63 92 2.0 3.0 0.00 0.00 0.00 59 1016.8
20260508140846 62 258 3.0 4.0 0.00 0.00 0.00 60 1016.8
20260508140343 62 73 0.0 1.0 0.00 0.00 0.00 63 1016.7
20260508135838 60 62 1.0 1.0 0.00 0.00 0.00 63 1016.8
20260508135335 60 51 0.0 0.0 0.00 0.00 0.00 66 1016.7
20260508134831 59 264 3.0 3.0 0.00 0.00 0.00 64 1016.7
20260508134328 59 233 4.0 6.0 0.00 0.00 0.00 66 1016.9
20260508133825 59 115 1.0 2.0 0.00 0.00 0.00 66 1016.9
20260508133323 58 70 2.0 2.0 0.00 0.00 0.00 68 1017.1
20260508132820 58 52 1.0 2.0 0.00 0.00 0.00 67 1017.0
20260508132317 57 57 0.0 0.0 0.00 0.00 0.00 70 1017.2
20260508131813 57 59 0.0 1.0 0.00 0.00 0.00 71 1017.2
20260508131309 56 35 1.0 1.0 0.00 0.00 0.00 71 1017.0
20260508130806 56 51 0.0 0.0 0.00 0.00 0.00 72 1016.9
20260508130303 55 272 2.0 3.0 0.00 0.00 0.00 72 1017.1
20260508125759 55 102 1.0 1.0 0.00 0.00 0.00 75 1016.7
20260508125255 54 304 2.0 2.0 0.00 0.00 0.00 78 1017.2
20260508124754 54 71 0.0 0.0 0.00 0.00 0.00 78 1017.0
20260508124251 53 81 1.0 1.0 0.00 0.00 0.00 78 1017.0
20260508123749 52 70 1.0 1.0 0.00 0.00 0.00 81 1016.9
20260508123246 51 63 0.0 0.0 0.00 0.00 0.00 83 1016.7
20260508122743 50 58 0.0 0.0 0.00 0.00 0.00 87 1016.8
20260508122239 50 54 0.0 1.0 0.00 0.00 0.00 91 1016.9
20260508121737 48 71 0.0 1.0 0.00 0.00 0.00 96 1016.8
20260508121235 48 59 0.0 0.0 0.00 0.00 0.00 97 1017.0
20260508120732 47 63 0.0 0.0 0.00 0.00 0.00 98 1016.8
20260508120231 46 63 0.0 0.0 0.00 0.00 0.00 99 1016.6
20260508115728 46 61 0.0 0.0 0.00 0.00 0.00 99 1016.6
20260508115225 46 61 0.0 0.0 0.00 0.00 0.00 99 1016.6
20260508114721 45 66 0.0 0.0 0.00 0.00 0.00 99 1016.5
20260508114218 45 62 0.0 0.0 0.00 0.00 0.00 99 1016.6
20260508113715 45 41 0.0 0.0 0.00 0.00 0.00 99 1016.4
20260508113214 45 41 0.0 0.0 0.00 0.00 0.00 99 1016.1
20260508112709 44 40 0.0 0.0 0.00 0.00 0.00 99 1016.1
20260508112206 44 40 0.0 0.0 0.00 0.00 0.00 99 1016.0
20260508111703 44 40 0.0 0.0 0.00 0.00 0.00 99 1015.9
20260508111200 44 40 0.0 0.0 0.00 0.00 0.00 99 1015.8
20260508110658 44 40 0.0 0.0 0.00 0.00 0.00 99 1015.8
20260508110154 44 40 0.0 0.0 0.00 0.00 0.00 99 1015.8
20260508105649 43 40 0.0 0.0 0.00 0.00 0.00 99 1015.8
20260508105146 44 40 0.0 0.0 0.00 0.00 0.00 98 1015.7
20260508104644 44 40 0.0 0.0 0.00 0.00 0.00 98 1015.6
20260508104140 43 40 0.0 0.0 0.00 0.00 0.00 98 1015.7
20260508103637 43 40 0.0 0.0 0.00 0.00 0.00 98 1015.6
20260508103135 43 40 0.0 0.0 0.00 0.00 0.00 98 1015.7
20260508102632 44 40 0.0 0.0 0.00 0.00 0.00 98 1015.8
20260508102130 44 40 0.0 0.0 0.00 0.00 0.00 98 1015.8
20260508101627 43 40 0.0 0.0 0.00 0.00 0.00 98 1015.7
20260508101124 43 40 0.0 0.0 0.00 0.00 0.00 98 1015.8
20260508100622 43 40 0.0 0.0 0.00 0.00 0.00 98 1015.9
20260508100120 44 40 0.0 0.0 0.00 0.00 0.00 98 1016.0
20260508095616 44 40 0.0 0.0 0.00 0.00 0.00 98 1015.9
20260508095113 44 40 0.0 0.0 0.00 0.00 0.00 98 1015.7
20260508094610 44 40 0.0 0.0 0.00 0.00 0.00 98 1015.8
20260508094106 44 39 0.0 0.0 0.00 0.00 0.00 98 1015.8
20260508093604 44 39 0.0 0.0 0.00 0.00 0.00 98 1015.8
20260508093102 44 39 0.0 0.0 0.00 0.00 0.00 98 1015.6
20260508092558 44 39 0.0 0.0 0.00 0.00 0.00 98 1015.8
20260508092057 44 39 0.0 0.0 0.00 0.00 0.00 98 1015.7
20260508091554 44 39 0.0 0.0 0.00 0.00 0.00 98 1015.7
20260508091050 44 39 0.0 0.0 0.00 0.00 0.00 98 1015.6
20260508090549 44 23 1.0 1.0 0.00 0.00 0.00 98 1015.5
20260508090045 44 40 0.0 0.0 0.00 0.00 0.00 98 1015.3
20260508085542 44 60 0.0 0.0 0.00 0.00 0.00 98 1015.3
20260508085039 44 60 0.0 0.0 0.00 0.00 0.00 98 1015.3
20260508084536 44 60 0.0 0.0 0.00 0.00 0.00 97 1015.2
20260508084033 44 60 0.0 0.0 0.00 0.00 0.00 97 1015.3
20260508083530 44 60 0.0 0.0 0.00 0.00 0.00 97 1015.2
20260508083027 44 60 0.0 0.0 0.00 0.00 0.00 97 1015.3
20260508082523 44 60 0.0 0.0 0.00 0.00 0.00 97 1015.5
20260508082020 44 60 0.0 0.0 0.00 0.00 0.00 97 1015.3
20260508081518 44 60 0.0 0.0 0.00 0.00 0.00 97 1015.6
20260508081013 44 60 0.0 0.0 0.00 0.00 0.00 97 1015.6
20260508080512 45 60 0.0 0.0 0.00 0.00 0.00 96 1015.7
20260508080009 45 60 0.0 0.0 0.00 0.00 0.00 96 1015.6
20260508075505 45 60 0.0 0.0 0.00 0.00 0.00 96 1015.8
20260508075003 45 60 0.0 0.0 0.00 0.00 0.00 96 1015.8
20260508074501 45 60 0.0 0.0 0.00 0.00 0.00 96 1016.0
20260508073957 45 60 0.0 0.0 0.00 0.00 0.00 96 1015.9
20260508073454 45 60 0.0 0.0 0.00 0.00 0.00 95 1016.1
20260508072951 45 60 0.0 0.0 0.00 0.00 0.00 94 1016.0
20260508072447 45 60 0.0 0.0 0.00 0.00 0.00 94 1016.1
20260508071945 46 60 0.0 0.0 0.00 0.00 0.00 94 1016.3
20260508071443 46 60 0.0 0.0 0.00 0.00 0.00 94 1016.3
20260508070940 46 60 0.0 0.0 0.00 0.00 0.00 94 1016.1
20260508070438 46 60 0.0 0.0 0.00 0.00 0.00 93 1016.1
20260508065936 46 60 0.0 0.0 0.00 0.00 0.00 92 1016.1
20260508065433 46 60 0.0 0.0 0.00 0.00 0.00 92 1016.3
20260508064931 47 60 0.0 0.0 0.00 0.00 0.00 92 1016.3